#timestamp,LO_Frequency,Hit,StdDev 
1556017215.2,286046998.4,N
1556017235.1,286046998.1,N
1556017236.0,286046998.1,N
1556017255.8,286046998.4,N
1556017275.6,286046998.4,N
1556017295.5,286046998.5,N
1556017315.3,286046998.3,N
1556017335.1,286046998.6,N
1556017355.9,286046998.5,N
1556017375.7,286046998.3,N
1556017395.6,286046998.4,N
1556017415.4,286046998.5,N
1556017435.2,286046998.5,N
1556017455.1,286046998.4,N
1556017456.0,286046998.4,N
1556017475.8,286046998.7,N
1556017495.6,286046998.7,N
1556017515.5,286046998.7,N
1556017535.3,286046998.4,N
1556017555.2,286046998.4,N
1556017575.9,286046998.4,N
1556017595.7,286047001.2,N
1556017615.6,286046998.9,N
1556017635.4,286046998.9,N
1556017655.3,286046998.9,N
1556017675.1,286046998.8,N
1556017676.0,286046998.8,N
1556017695.8,286046998.2,Y
1556017715.7,286047000.9,P
1556017735.5,286047000.1,N
1556017755.3,286047000.5,N
1556017775.2,286047000.5,N
1556017795.0,286046999.8,N
1556017795.9,286046999.8,N
1556017815.8,286047000.4,N
1556017835.6,286047000.6,N
1556017855.4,286047000.5,N
1556017875.3,286047000.6,N
1556017895.1,286047000.6,N
1556017915.9,286047000.9,N
1556017935.7,286047000.9,N
1556017955.5,286047000.7,N
1556017975.4,286047000.8,N
1556017995.2,286047001.0,N
1556018015.0,286047000.9,N
1556018016.0,286047000.9,N
1556018035.8,286047000.0,N
1556018055.6,286046999.9,N
1556018075.5,286047000.3,N
1556018095.3,286047001.0,N
1556018115.1,286047000.8,N
1556018135.9,286047000.7,N
1556018155.7,286047000.7,N
1556018175.6,286047000.7,N
1556018195.4,286047001.0,N
1556018215.2,286047000.3,N
1556018235.1,286047000.9,N
1556018236.0,286047000.9,N
1556018255.8,286047000.4,N
1556018275.6,286047000.5,N
1556018295.5,286047000.5,N
1556018315.3,286047000.4,N
1556018335.2,286047000.4,N
1556018355.9,286047000.4,N
1556018375.7,286047000.5,N
1556018395.6,286047000.9,Y
1556018415.4,286047001.2,P
1556018435.3,286047001.1,P
1556018455.1,286047000.4,N
1556018456.0,286047000.4,N
1556018475.8,286047001.1,Y
1556018495.7,286046998.4,P
1556018515.5,286047001.2,N
1556018535.3,286047001.2,N
1556018555.2,286046998.6,N
1556018575.0,286046998.3,N
1556018575.9,286046998.3,N
1556018595.8,286046998.8,N
1556018645.6,286046998.2,E
1556018655.5,286047001.2,N
1556018675.4,286046999.9,P
1556018695.2,286046999.8,N
1556018715.1,286047002.4,Y
1556018716.0,286047002.4,P
1556018735.8,286047002.8,N
1556018755.6,286047002.7,N
1556018775.5,286047002.4,N
1556018795.3,286046999.7,N
1556018815.2,286046999.7,N
1556018835.9,286047002.4,N
1556018855.7,286047002.3,N
1556018875.6,286047002.8,N
1556018895.4,286046999.7,N
1556018915.2,286046999.8,N
1556018935.1,286047000.2,N
1556018936.0,286047000.2,N
1556018955.8,286047002.2,N
1556018975.7,286047000.3,N
1556018995.5,286046999.9,N
1556019015.3,286047002.4,N
1556019035.2,286047000.1,N
1556019055.0,286047000.1,N
1556019055.9,286047000.1,N
1556019075.8,286046999.8,N
1556019095.6,286047002.8,N
1556019115.4,286047002.4,N
1556019135.3,286046999.7,N
1556019155.1,286047002.8,N
1556019175.9,286046999.7,N
1556019195.7,286047000.1,N
1556019215.5,286046999.7,N
1556019235.4,286047000.1,N
1556019255.2,286046999.8,N
1556019275.0,286047002.8,N
1556019275.9,286047002.8,N
1556019295.8,286047002.6,N
1556019315.6,286047000.2,N
1556019335.5,286047002.4,N
1556019355.3,286047002.6,N
1556019375.1,286047002.0,N
1556019395.9,286047002.5,N
1556019415.7,286047002.1,N
1556019435.6,286047001.9,N
1556019455.4,286047001.8,N
1556019475.2,286047001.5,N
1556019495.1,286047001.4,N
1556019496.0,286047001.4,N
1556019515.8,286047001.4,N
1556019535.6,286047003.9,Y
1556019555.5,286047002.7,P
1556019575.3,286047002.3,P
1556019595.2,286047002.4,P
1556019615.9,286047002.3,Y
1556019635.7,286046998.3,P
1556019655.6,286046999.3,N
1556019675.4,286046998.3,N
1556019695.3,286046998.4,N
1556019715.1,286046999.0,N
1556019716.0,286046999.0,N
1556019735.8,286046999.0,N
1556019755.7,286046998.9,N
1556019775.5,286046998.8,N
1556019795.4,286046998.8,N
1556019815.2,286047001.2,N
1556019835.0,286046998.6,N
1556019835.9,286046998.6,N
1556019855.8,286046998.6,N
1556019875.6,286047000.7,N
1556019895.4,286046998.2,N
1556019915.3,286046998.3,N
1556019935.1,286046998.4,N
1556019955.9,286046998.4,N
1556019975.7,286046998.3,N
1556019995.5,286046998.5,N
1556020015.4,286046998.2,N
1556020035.2,286047001.2,N
1556020055.1,286047000.6,N
1556020056.0,286047000.6,N
1556020075.8,286047001.2,N
1556020095.6,286046998.2,N
1556020115.5,286046998.9,N
1556020135.3,286046998.1,N
1556020155.1,286046998.2,N
1556020175.9,286046998.1,N
1556020195.7,286047001.2,N
1556020215.6,286047001.1,N
1556020235.4,286047001.1,N
1556020255.2,286047001.1,N
1556020275.1,286047000.8,N
1556020276.0,286047000.8,N
1556020295.8,286047001.2,N
1556020315.7,286047001.2,N
1556020335.5,286047001.2,N
1556020355.3,286047000.8,N
1556020375.2,286047000.8,N
1556020395.0,286047000.7,N
1556020395.9,286047000.7,N
1556020415.8,286046998.6,N
1556020435.6,286047000.7,N
1556020455.4,286047001.1,N
1556020475.3,286047000.8,N
1556020495.1,286047000.7,N
1556020515.8,286047000.8,N
1556020535.7,286047000.7,N
1556020555.5,286047001.0,N
1556020575.4,286047001.0,N
1556020595.2,286047000.9,N
1556020615.0,286047000.9,N
1556020615.9,286047000.9,N
1556020635.8,286047000.5,N
1556020655.6,286047000.5,N
1556020675.4,286047000.5,N
1556020695.3,286047000.9,N
1556020715.1,286047000.9,N
1556020735.9,286047000.6,N
1556020755.7,286047001.2,N
1556020775.5,286047000.0,N
1556020795.4,286046999.9,N
